Wind_Speed
15 15 14 14 14 14 14 14 14 15 14 14 14 14 15 16 16 16 17 18 18 19 20 20 21 22 22 23 23 23 23 23 23 23 25 26 27 27 27 27 27 27 27
15 15 15 15 15 14 14 14 14 15 16 15 15 16 16 16 16 17 18 19 19 20 20 21 22 22 22 23 23 23 23 24 24 25 26 27 27 28 28 28 29 30 30
15 15 15 15 15 14 14 14 14 15 15 16 16 17 17 17 18 18 19 20 19 19 20 20 21 22 22 22 22 23 23 24 24 25 26 27 28 28 29 30 31 32 32
14 14 14 15 14 13 13 14 14 14 14 16 16 16 17 18 19 19 20 20 20 20 20 21 21 22 22 22 22 23 23 24 25 26 26 27 28 29 30 32 33 32 32
13 14 14 13 14 14 14 14 14 14 15 16 16 17 18 18 19 19 20 20 20 20 20 21 21 21 21 21 22 23 24 25 26 27 27 28 29 30 31 32 33 34 34
14 13 13 14 14 14 14 14 14 15 16 16 17 17 18 18 19 19 20 21 21 21 22 22 22 22 22 22 24 24 26 26 27 27 28 29 29 29 31 32 33 33 34
14 15 15 15 15 15 14 14 14 15 16 17 18 19 19 19 19 20 21 21 22 23 23 23 23 24 24 24 25 25 25 26 27 27 27 28 30 30 32 32 33 34 35
15 15 16 16 16 16 16 15 15 16 17 18 18 19 20 20 21 22 22 23 23 23 23 23 23 24 25 25 25 24 25 26 26 27 28 29 30 31 33 33 34 36 36
15 16 16 17 16 16 16 16 16 16 16 17 18 19 19 19 21 22 23 23 23 22 23 23 23 24 25 25 25 26 26 27 28 29 29 30 31 33 34 34 35 36 37
16 16 16 16 16 16 16 17 17 17 17 17 18 19 20 21 21 22 22 22 22 22 23 23 24 25 25 25 26 27 27 28 29 29 30 31 33 34 35 36 36 37 38
16 16 17 17 17 16 17 17 17 17 18 17 18 19 20 22 22 22 23 23 23 23 23 24 25 25 25 26 27 28 29 29 30 30 31 32 33 34 35 36 36 36 37
16 16 17 17 17 17 18 18 18 18 18 19 19 20 20 21 21 22 23 23 24 24 24 24 26 27 27 27 28 28 29 30 31 32 32 33 33 34 35 35 34 34 35
18 18 19 19 18 18 19 18 18 18 19 20 20 21 21 22 22 22 23 24 24 25 25 26 27 27 27 28 28 29 30 31 32 33 33 34 34 34 34 34 34 34 33
20 20 20 20 19 19 19 19 19 20 20 21 21 22 22 22 23 23 24 24 25 25 25 25 26 27 28 28 29 30 30 31 32 32 33 34 34 34 34 34 34 34 35
20 21 20 20 21 20 20 20 20 21 22 22 22 22 22 23 23 23 24 25 25 25 25 26 27 27 28 29 30 30 31 32 33 33 34 34 34 34 34 34 35 36 36
20 20 20 20 21 21 21 21 22 22 22 22 22 23 23 23 23 24 24 24 24 25 26 27 27 28 28 29 30 31 31 32 33 34 34 34 34 34 34 35 35 36 36
20 20 20 21 21 22 22 22 22 23 22 22 22 22 23 23 24 24 25 25 25 26 27 28 28 29 29 30 31 32 32 33 33 33 33 33 34 34 35 35 36 36 36
20 20 21 21 22 22 23 23 23 23 23 23 23 23 23 23 24 24 25 26 27 27 28 28 29 29 30 31 32 32 32 32 32 32 32 33 33 34 34 34 35 35 35
20 21 21 21 22 22 23 23 23 23 23 23 23 23 24 24 24 25 26 27 27 28 28 29 30 30 31 31 32 32 32 32 32 32 32 32 33 33 33 34 34 34 34
19 20 20 20 21 21 21 22 23 23 23 23 23 24 24 24 25 25 26 26 27 27 28 28 29 30 30 31 31 31 31 31 31 31 31 31 32 33 33 33 34 34 34
19 20 20 21 21 21 22 22 22 22 23 23 24 24 24 24 25 25 25 26 26 27 28 29 29 30 30 30 30 29 29 30 30 30 30 31 32 32 32 32 33 33 33
19 19 20 20 21 21 22 23 23 23 23 23 23 23 23 24 25 25 25 25 26 27 28 28 28 28 28 28 28 29 29 29 29 29 30 31 31 32 32 32 32 32 32
19 19 20 21 21 21 22 23 22 22 22 22 23 23 23 24 24 24 25 25 26 27 27 27 27 27 27 27 28 29 29 29 29 30 31 31 31 31 31 31 31 30 30
19 20 20 21 21 21 22 22 22 22 22 22 23 23 23 24 24 25 25 26 27 27 27 27 27 27 27 27 28 29 29 30 30 30 31 31 31 31 30 30 30 30 30
19 20 20 21 21 22 22 22 22 22 22 22 23 23 24 24 24 25 26 26 26 26 26 26 26 26 27 27 28 29 29 30 30 30 30 30 30 29 29 29 30 29 29
19 20 20 20 21 21 21 22 22 23 22 22 23 23 23 24 24 25 26 26 26 26 26 26 26 26 27 28 29 29 29 29 29 30 29 29 29 29 29 29 29 29 29
Wind_Direction
274 272 274 275 278 282 281 279 272 267 267 268 272 274 274 272 271 273 274 277 277 276 275 274 275 276 276 275 274 274 274 274 276 276 278 277 278 280 280 281 282 282 282
273 269 270 274 278 278 278 278 273 266 265 268 269 271 273 275 275 274 274 278 279 278 278 278 278 278 277 275 275 275 276 277 278 279 279 279 281 282 281 280 282 282 282
268 266 268 272 275 275 276 276 274 268 265 267 269 271 271 274 275 275 276 278 277 278 279 279 280 279 278 279 279 277 278 279 281 282 282 281 281 282 281 281 282 283 282
266 265 267 272 272 275 276 277 275 271 268 268 270 271 273 275 275 275 276 276 277 279 279 278 281 281 281 281 280 279 280 283 285 285 284 283 282 281 282 283 283 283 284
264 266 267 269 273 275 276 275 275 274 277 274 272 273 276 277 276 275 276 275 278 280 280 280 280 281 282 284 285 285 284 284 285 286 287 286 285 284 284 285 284 284 284
264 266 268 270 274 278 277 277 276 276 276 276 274 275 277 277 277 277 278 278 279 280 281 282 281 283 285 287 287 286 286 286 285 286 287 287 286 285 286 287 287 285 286
265 267 272 273 275 279 279 279 276 276 275 276 276 275 275 277 278 279 280 280 280 280 281 281 282 284 285 287 286 286 287 287 287 287 288 288 287 287 288 288 288 288 288
265 269 274 276 278 281 278 279 278 277 276 277 277 276 276 276 278 279 279 280 280 280 282 285 286 286 287 289 288 288 289 289 289 289 291 291 290 290 290 289 289 289 289
268 272 274 275 276 280 279 278 279 281 281 281 280 278 279 279 281 282 282 282 282 282 282 284 285 287 288 288 287 289 289 290 291 292 292 292 292 293 292 290 289 290 290
271 272 273 274 278 280 280 281 279 280 283 285 285 282 281 280 281 282 283 284 286 288 288 288 290 289 288 289 291 291 292 293 294 294 294 294 294 294 293 293 292 293 293
272 274 275 276 276 279 282 285 283 282 284 286 288 288 285 283 283 284 285 287 288 290 290 291 291 291 291 292 294 295 295 295 296 296 297 297 296 296 296 297 297 296 296
270 274 275 276 277 279 282 285 285 286 286 287 288 289 289 287 286 287 289 289 289 289 290 289 290 292 292 294 295 296 297 297 297 297 297 297 297 297 298 298 299 299 299
269 273 275 277 278 280 283 285 286 287 289 289 290 292 292 290 288 288 288 287 288 289 290 290 292 292 293 294 295 296 297 297 297 298 298 299 300 300 300 300 300 300 301
270 274 275 278 279 281 283 285 287 288 288 290 291 291 290 289 289 290 290 291 291 291 291 292 292 294 295 296 297 298 298 298 298 299 299 300 301 302 302 302 302 302 303
270 273 275 277 279 279 281 284 286 287 289 290 291 291 291 291 292 293 293 293 293 292 292 293 295 296 297 297 298 299 300 300 300 300 302 304 304 304 303 303 303 304 304
271 273 275 276 278 279 282 285 287 288 289 290 292 292 292 293 294 295 294 294 294 294 294 295 296 297 298 299 300 301 302 302 303 302 303 304 304 304 304 303 303 304 305
272 274 275 277 278 279 283 284 285 287 288 289 291 292 292 292 293 294 293 293 294 295 296 297 297 299 300 301 303 304 304 304 304 304 304 304 304 304 304 304 305 306 306
272 275 277 279 279 280 282 284 285 287 288 289 290 291 293 293 293 294 295 296 296 296 297 298 299 301 302 303 305 305 305 305 305 305 305 305 305 306 306 307 307 308 308
273 276 278 279 280 282 284 285 286 287 288 290 291 292 293 294 295 295 296 296 297 298 298 299 300 302 303 304 305 306 306 307 307 307 306 307 307 308 308 309 309 309 309
274 276 279 282 284 285 285 286 288 289 289 291 293 292 292 293 294 295 296 296 297 299 300 301 302 303 305 305 306 306 307 308 308 308 308 309 309 309 309 309 309 309 309
274 277 280 283 284 285 287 289 290 291 292 291 291 291 292 294 296 297 299 299 300 301 302 302 303 305 306 307 307 308 308 309 310 310 310 310 311 310 310 310 310 310 311
275 278 280 283 284 287 289 290 291 291 291 291 290 291 293 296 298 299 300 302 303 303 304 305 306 307 308 308 309 309 310 311 311 311 312 312 312 313 313 313 312 312 312
278 280 282 285 288 290 291 290 290 291 293 294 294 295 297 298 299 300 302 303 305 306 307 308 308 308 309 309 310 311 311 311 311 312 312 313 313 314 314 315 314 314 314
281 283 285 287 289 291 291 291 291 293 295 294 295 297 298 299 299 300 302 304 305 306 307 308 309 309 310 311 311 311 311 311 312 312 313 313 314 315 316 316 315 315 315
284 287 289 290 291 292 292 292 292 293 294 295 297 298 299 300 301 302 303 305 306 307 308 309 309 310 311 312 312 312 312 312 312 313 313 314 314 315 316 317 316 316 316
285 287 288 289 290 291 291 292 293 294 295 296 297 299 302 303 304 305 305 306 306 307 308 308 309 310 311 312 313 313 313 313 313 314 314 314 315 316 317 317 317 317 316
Height
5888 5888 5888 5888 5887 5886 5886 5885 5885 5885 5886 5886 5886 5886 5886 5886 5886 5886 5886 5886 5885 5885 5884 5884 5883 5882 5881 5880 5880 5879 5878 5877 5876 5875 5874 5872 5871 5871 5869 5868 5867 5866 5865
5884 5885 5885 5885 5884 5883 5883 5882 5882 5882 5882 5882 5883 5882 5882 5882 5882 5882 5882 5881 5881 5880 5879 5878 5877 5876 5875 5874 5873 5873 5872 5871 5870 5869 5867 5866 5865 5864 5863 5861 5860 5859 5857
5881 5881 5881 5881 5881 5880 5879 5879 5878 5878 5878 5878 5879 5878 5878 5879 5878 5878 5877 5877 5876 5875 5874 5873 5872 5871 5870 5869 5867 5867 5866 5865 5864 5862 5861 5859 5858 5857 5856 5854 5853 5851 5849
5878 5878 5878 5878 5877 5876 5876 5876 5875 5875 5875 5875 5875 5875 5875 5874 5874 5873 5873 5872 5871 5870 5869 5868 5867 5865 5864 5863 5862 5861 5860 5859 5857 5856 5854 5853 5851 5850 5848 5846 5844 5843 5841
5875 5875 5874 5874 5874 5873 5872 5872 5872 5871 5871 5870 5871 5871 5870 5870 5869 5868 5868 5867 5866 5865 5864 5863 5861 5860 5859 5857 5856 5855 5854 5852 5851 5849 5847 5846 5844 5842 5840 5838 5836 5834 5832
5872 5872 5872 5871 5871 5870 5869 5868 5868 5867 5867 5867 5867 5866 5866 5866 5865 5864 5863 5862 5861 5860 5859 5857 5856 5855 5853 5852 5851 5849 5847 5846 5844 5842 5840 5838 5836 5834 5832 5830 5827 5825 5823
5869 5869 5868 5868 5868 5867 5866 5865 5864 5864 5863 5863 5863 5862 5862 5861 5860 5859 5858 5857 5856 5855 5854 5852 5851 5849 5848 5846 5845 5843 5841 5839 5837 5835 5833 5831 5829 5827 5824 5821 5818 5816 5814
5865 5865 5865 5864 5864 5863 5862 5862 5861 5860 5859 5859 5858 5857 5857 5856 5855 5854 5853 5851 5850 5849 5848 5846 5845 5843 5842 5840 5838 5836 5834 5832 5830 5828 5825 5823 5820 5818 5815 5812 5809 5806 5804
5862 5861 5861 5860 5860 5859 5858 5858 5857 5857 5856 5855 5853 5853 5852 5851 5850 5849 5847 5846 5844 5843 5842 5841 5839 5837 5835 5834 5832 5830 5828 5825 5822 5820 5817 5815 5812 5809 5806 5803 5799 5796 5793
5858 5858 5857 5856 5856 5855 5855 5854 5853 5852 5852 5850 5849 5848 5847 5846 5845 5844 5843 5841 5839 5838 5836 5835 5833 5831 5829 5827 5825 5823 5821 5818 5816 5813 5810 5807 5804 5800 5797 5793 5790 5786 5783
5854 5854 5854 5853 5852 5852 5851 5850 5849 5848 5847 5846 5844 5843 5842 5841 5840 5839 5837 5836 5834 5832 5830 5829 5827 5825 5823 5821 5818 5816 5813 5811 5808 5805 5802 5799 5795 5792 5788 5784 5780 5777 5773
5850 5850 5850 5849 5849 5848 5847 5846 5845 5844 5842 5841 5840 5839 5837 5836 5834 5833 5832 5830 5828 5826 5824 5822 5820 5818 5816 5814 5811 5809 5806 5803 5800 5797 5793 5790 5786 5782 5779 5775 5771 5767 5764
5846 5846 5846 5845 5844 5844 5843 5842 5840 5839 5838 5837 5835 5834 5832 5830 5829 5827 5825 5823 5821 5820 5818 5816 5814 5812 5809 5807 5804 5801 5798 5795 5792 5788 5785 5781 5777 5773 5769 5765 5762 5758 5754
5842 5842 5841 5841 5840 5839 5838 5837 5836 5834 5833 5831 5830 5828 5826 5825 5823 5821 5819 5817 5815 5813 5811 5809 5807 5804 5802 5799 5796 5793 5790 5787 5783 5779 5775 5772 5767 5764 5760 5756 5752 5748 5745
5837 5836 5836 5835 5835 5834 5833 5832 5831 5829 5828 5826 5824 5822 5821 5819 5817 5815 5813 5811 5809 5807 5804 5802 5800 5797 5794 5791 5788 5785 5782 5778 5775 5771 5766 5762 5759 5755 5751 5747 5743 5739 5735
5831 5831 5830 5830 5829 5828 5827 5826 5824 5823 5822 5820 5818 5817 5814 5813 5811 5809 5807 5804 5802 5800 5798 5795 5792 5790 5787 5784 5780 5777 5773 5770 5766 5762 5758 5754 5750 5746 5742 5738 5734 5730 5725
5826 5825 5825 5824 5823 5822 5821 5820 5819 5817 5815 5814 5812 5810 5808 5806 5805 5803 5800 5798 5796 5793 5791 5788 5785 5782 5779 5776 5772 5769 5765 5761 5757 5753 5749 5745 5741 5737 5733 5728 5724 5720 5715
5820 5819 5819 5818 5817 5816 5815 5814 5812 5811 5809 5807 5805 5804 5802 5800 5798 5796 5794 5791 5789 5786 5783 5780 5777 5774 5771 5768 5764 5760 5756 5752 5748 5744 5740 5736 5732 5727 5723 5719 5714 5710 5705
5814 5814 5813 5812 5811 5810 5809 5807 5806 5804 5803 5801 5799 5797 5795 5793 5791 5789 5787 5784 5781 5778 5776 5773 5770 5766 5763 5759 5755 5751 5747 5743 5739 5735 5731 5727 5723 5718 5714 5710 5705 5701 5696
5808 5808 5807 5806 5805 5804 5803 5801 5800 5798 5796 5795 5793 5791 5789 5787 5785 5782 5780 5777 5774 5771 5768 5765 5762 5758 5754 5751 5747 5743 5739 5735 5731 5727 5722 5718 5714 5710 5705 5701 5696 5692 5687
5803 5802 5801 5801 5799 5798 5797 5795 5794 5792 5790 5788 5787 5785 5783 5781 5778 5775 5772 5770 5767 5764 5761 5757 5754 5750 5746 5742 5739 5735 5731 5727 5723 5718 5714 5710 5705 5701 5697 5692 5688 5683 5679
5797 5796 5795 5794 5793 5792 5791 5790 5788 5786 5784 5782 5780 5778 5776 5774 5772 5769 5766 5763 5760 5756 5753 5750 5746 5742 5738 5735 5731 5727 5723 5719 5715 5711 5706 5702 5697 5693 5688 5684 5679 5675 5670
5791 5791 5790 5789 5788 5786 5785 5783 5782 5780 5778 5776 5774 5772 5770 5768 5765 5762 5759 5756 5753 5749 5746 5742 5739 5735 5731 5727 5724 5720 5716 5712 5707 5703 5699 5694 5690 5685 5681 5676 5671 5667 5663
5786 5785 5784 5783 5782 5781 5779 5777 5776 5774 5772 5770 5768 5766 5763 5761 5758 5755 5752 5749 5746 5742 5739 5735 5732 5728 5724 5720 5717 5713 5708 5704 5700 5696 5691 5687 5682 5678 5673 5669 5664 5660 5656
5780 5779 5778 5777 5776 5775 5773 5771 5769 5768 5766 5764 5762 5759 5757 5754 5751 5748 5745 5742 5739 5735 5732 5728 5725 5721 5717 5713 5709 5705 5701 5697 5693 5688 5684 5679 5675 5670 5666 5662 5657 5653 5648
5775 5774 5773 5771 5770 5769 5767 5765 5764 5762 5760 5757 5755 5753 5750 5747 5745 5742 5738 5735 5732 5728 5725 5721 5718 5714 5710 5706 5702 5698 5694 5690 5685 5681 5676 5672 5668 5663 5659 5655 5650 5646 5641